Location: Observatoire
(46.1952°N, 5.3391°E)
Time: 01:48:51
(UTC+01:00)

Tiros 1 despin weight - Pass Details

Date: 20 February 2026
Orbit: 556 x 593 km, 48.2° (Epoch: 9 March)

Event Time Altitude Azimuth Distance (km) Brightness Sun altitude
Rises 16:31:15 0° 261° (W) 2,738 ? 15.0°
Reaches altitude 10° 16:33:31 10° 263° (W) 1,840 ? 14.6°
Maximum altitude 16:37:42 74° 349° (N) 580 ? 14.0°
Drops below altitude 10° 16:41:54 10° 75° (ENE) 1,837 ? 13.4°
Sets 16:44:09 0° 78° (ENE) 2,733 ? 13.1°
